User: anonymous   Login
Location: Unspecified
(0.0000°N, 0.0000°E)
Time: 19:16:46
(UTC+01:00)
Language:

OPAL - Orbit

View from above orbital plane
View from above orbital plane
View from above satellite
View from above satellite

Ground track
Ground track

The orbit data is extracted from the following two-line orbital elements,

1 26063U 00004C   17022.17623299 -.00000002  00000-0  19228-4 0  9991
2 26063 100.2166 358.6466 0036553   1.1385 358.9872 14.36649926890417
Epoch (UTC): 22 January 2017 04:13:46
Eccentricity: 0.0036553
inclination: 100.2166°
perigee height: 743 km
apogee height: 796 km
right ascension of ascending node: 358.6466°
argument of perigee: 1.1385°
revolutions per day: 14.36649926
mean anomaly at epoch: 358.9872°
orbit number at epoch: 89041

The dashed part of the orbit path shows where the satellite is in the earth's shadow,  

DLR